Flag for Germany Weather past 2 weeks in Georgsmarienhütte, Lower Saxony, Germany

Now
66 °F

Broken clouds.


Feels Like: 66 °F
Forecast: 53 / 69 °F
Wind: 10 mph from West

Location: Muenster / Osnabrueck

Current Time: Sep 1, 2014 at 3:53:50 PM

Latest Report: Sep 1, 2014 at 3:20 PM


Visibility: N/A

Pressure: 30.09 "Hg

Humidity: 68%

Dew point: 55 °F

Location of GeorgsmarienhütteLocation

Historic Weather in Georgsmarienhütte — Graph

°F

Georgsmarienhütte temperature yesterday

Maximum temperature yesterday: 64 °F (at 1:20 PM)
Minimum temperature yesterday: 52 °F (at 11:20 PM)
Average temperature yesterday: 58 °F

Past Weeks' High & Low Weather Summary

 TemperatureHumidityPressure
High75 °F (Aug 28, 3:20 PM)100% (Aug 17, 10:20 PM)30.12 "Hg (Aug 17, 10:20 PM)
Low41 °F (Aug 25, 3:50 AM)40% (Aug 27, 6:20 PM)29.62 "Hg (Aug 18, 4:20 AM)
Average57 °F84%29.91 "Hg
* Reported Aug 17 2:20 PM — Sep 1 2:20 PM, Georgsmarienhütte, Weather by CustomWeather, © 2014

Note: Actual official high and low records may vary slightly from our data, if they occured in-between our weather recording intervals... More about our weather records

Advertising

Georgsmarienhütte weather history for previous 24 hours

 ConditionsComfort  
Time TempWeatherWind HumidityBarometerVisibility
2:20 PM
Sep 1
66 °FPartly sunny.9 mph60%30.12 "HgN/A
1:50 PM66 °FScattered clouds.9 mph64%30.12 "HgN/A
1:20 PM66 °FScattered clouds.13 mph64%30.12 "HgN/A
12:50 PM64 °FScattered clouds.12 mph73%30.12 "HgN/A
12:20 PM63 °FScattered clouds.10 mph77%30.12 "HgN/A
11:50 AM63 °FScattered clouds.8 mph77%30.12 "HgN/A
11:20 AM61 °FScattered clouds.8 mph83%30.12 "HgN/A
10:50 AM61 °FScattered clouds.7 mph83%30.12 "HgN/A
10:20 AM59 °FScattered clouds.9 mph88%30.09 "HgN/A
9:50 AM59 °FPassing clouds.7 mph94%30.09 "HgN/A
9:20 AM57 °FScattered clouds.6 mph94%30.09 "HgN/A
8:50 AM55 °FScattered clouds.6 mph100%30.09 "Hg6 mi
8:20 AM54 °FFog.3 mph100%30.09 "Hg3 mi
7:50 AM52 °FFog.2 mph100%30.09 "Hg3 mi
7:20 AM52 °FFog.5 mph100%30.07 "Hg2 mi
6:50 AM52 °FFog.5 mph100%30.07 "Hg1 mi
6:20 AM52 °FCool.3 mph100%30.07 "Hg1 mi
5:50 AM50 °FCool.3 mph100%30.07 "Hg1 mi
5:20 AM50 °FCool.3 mph100%30.07 "Hg1 mi
4:50 AM50 °FCool.3 mph100%30.07 "Hg2 mi
4:20 AM50 °FCool.3 mph100%30.07 "Hg2 mi
3:50 AM50 °FCool.3 mph100%30.04 "Hg4 mi
3:20 AM50 °FCool.3 mph100%30.04 "Hg5 mi
2:50 AM50 °FCool.3 mph100%30.04 "Hg6 mi
2:20 AM50 °FCool.2 mph100%30.04 "Hg6 mi
1:50 AM50 °FCool.3 mph100%30.04 "HgN/A
1:20 AM52 °FFog.5 mph100%30.04 "HgN/A
12:50 AM50 °FClear.3 mph100%30.04 "Hg10 mi
12:20 AM52 °FClear.3 mph100%30.04 "Hg10 mi
11:50 PM
Aug 31
52 °FClear.5 mph100%30.01 "Hg10 mi
11:20 PM52 °FFog.5 mph100%30.01 "HgN/A
10:50 PM54 °FCool.2 mph100%30.01 "HgN/A
10:20 PM55 °FFog.2 mph100%30.01 "HgN/A
9:50 PM55 °FPassing clouds.2 mph94%30.01 "HgN/A
9:20 PM55 °FPassing clouds.2 mph94%29.98 "HgN/A
8:50 PM55 °FPartly sunny.6 mph94%29.98 "HgN/A
8:20 PM57 °FBroken clouds.2 mph94%29.95 "HgN/A
7:50 PM57 °FSprinkles. Broken clouds.5 mph88%29.95 "HgN/A
7:20 PM61 °FSprinkles. Scattered clouds.5 mph83%29.95 "Hg6 mi
6:50 PM63 °FScattered showers. Scattered clouds.6 mph68%29.95 "HgN/A
6:20 PM63 °FScattered clouds.5 mph73%29.92 "HgN/A
5:50 PM63 °FScattered clouds.6 mph77%29.92 "HgN/A
5:20 PM61 °FScattered clouds.6 mph77%29.92 "HgN/A
4:50 PM61 °FSprinkles. Scattered clouds.5 mph83%29.92 "HgN/A
4:20 PM59 °FBroken clouds.8 mph82%29.92 "HgN/A
3:50 PM59 °FSprinkles. Broken clouds.7 mph77%29.92 "HgN/A
3:20 PM63 °FScattered showers. Broken clouds.2 mph77%29.92 "HgN/A
Weather by CustomWeather, © 2014

See weather overviewHow to use our weather pages